Weather Roundup
Issued by NWS Chicago, IL

Home | Current Version | Previous Version | Text Only | Print | Product List | Glossary Off
Versions: 1 2 3 4 5 6 7 8 9 10 11 12 13 14 15 16 17 18 19 20 21 22 23 24 25 26 27 28 29 30 31 32 33 34 35 36 37 38 39 40 41 42 43 44 45 46 47 48 49 50

000
NZUS59 KLOT 162310
HRRLOT

CHICAGO AREA WEATHER ROUNDUP
NATIONAL WEATHER SERVICE CHICAGO/ROMEOVILLE IL
600 PM CDT WED APR 16 2014

NOTE: "FAIR" INDICATES FEW OR NO CLOUDS BELOW 12,000 FEET WITH NO
SIGNIFICANT WEATHER AND/OR OBSTRUCTIONS TO VISIBILITY.

* THESE STATIONS ARE NOT UNDER NWS QUALITY CONTROL. THEY ALSO MAY NOT
  REPORT WEATHER SUCH AS PRECIPITATION OR FOG.

ILZ005-006-012>014-019>023-170000-
NORTHEAST ILLINOIS

CITY           SKY/WX    TMP DP  RH WIND       PRES   REMARKS
OHARE          MOSUNNY   51  22  31 SE22      30.13F
MIDWAY         MOSUNNY   52  24  33 SE21G28   30.14F
AURORA         SUNNY     52  26  36 SE24      30.10F
LANSING*       SUNNY     50  23  35 SE18      30.17S
JOLIET*        SUNNY     52  23  32 SE10G23   30.13F
WAUKEGAN       SUNNY     43  27  53 SE16G25   30.14S
DUPAGE AIRPORT SUNNY     52  23  32 SE20G32   30.11F
WHEELING       MOSUNNY   51  24  34 S22       30.14F
KANKAKEE*      MOSUNNY   52  27  38 SE17      30.15S
MORRIS*        SUNNY     54  19  25 SE20G31   30.10F
LEWIS AIRPORT* SUNNY     51  23  34 SE20G32   30.12F
NORTHERLY IS     N/A     49  31  50 SE18        N/A
$$

WIZ051-052-058>065-066-070>072-170000-
SOUTHEAST WISCONSIN

CITY           SKY/WX    TMP DP  RH WIND       PRES   REMARKS
MILWAUKEE      PTSUNNY   42  27  55 SE21G31   30.16F
KENOSHA*       MOSUNNY   45  26  47 SE20G29   30.14F
RACINE*        MOSUNNY   42  27  55 SE17G28   30.17F
BURLINGTON     MOSUNNY   46  28  49 SW15      30.11S
WAUKESHA       PTSUNNY   45  25  45 SE22G29   30.13S
WEST BEND      CLOUDY    39  23  52 SE13G18   30.14S
$$

INZ001>003-010>013-019-020-170000-
NORTHWEST INDIANA

CITY           SKY/WX    TMP DP  RH WIND       PRES   REMARKS
GARY*          MOSUNNY   52  21  30 SE17G31   30.17F
MICHIGAN CITY* NOT AVBL
RENSSELAER*    NOT AVBL
VALPARAISO     SUNNY     49  20  31 S16G26    30.19F
$$

LMZ740>746-170000-
SOUTHERN LAKE MICHIGAN

STATION/POSITION TIME  SKY/WX   TEMP WIND        PRES    VSBY
                                AIR  DIR/SP/G
                 (UTC)          (F)  (DEG/KT/KT) (MB)    (MI)
HARRISON CRIB    2300            47  140/ 19/ 22   N/A
BURNHAM HARBOR   2300            48  130/ 16/ 21   N/A
CALUMET HARBOR   2300            50  140/ 12/ 19 1022.1F
BURNS HARBOR     NOT AVBL
MICHIGAN CITY    2300            48  120/ 18/ 25   N/A
$$

ABBREVIATIONS USED IN REMARKS
   TC - TEMPERATURE IN CELSIUS
  WCI - WIND CHILL INDEX
   HX - HEAT INDEX
  VSB - VISIBILITY
$$



USA.gov is the U.S. government's official web portal to all federal, state and local government web resources and services.